When you browse on this site, cookies collect data to enhance your experience and personalize the content and advertising you see.
Visit our Privacy Policy to learn more. By continuing to use the site, you agree to this use of cookies and data.
  • In Spain
  • List of Countries
  • For 7 days
  • Water Temperature
  • Weather Map
  • Weather Widgets
  • user-avatar
    Login

    Hourly Weather Opole

    Today, 1 June, Monday

    Time Temperature Precipitation Wind Pressure Humidity
    00:00 +12°C° 0.1 mm 3 mps 749 mmHg 94%
    01:00 +13°C° 0 mm 2 mps 749 mmHg 95%
    02:00 +12°C° 0 mm 3 mps 749 mmHg 95%
    03:00 +11°C° 0 mm 3 mps 749 mmHg 95%
    04:00 +11°C° 0 mm 3 mps 749 mmHg 95%
    05:00 +12°C° 0 mm 3 mps 749 mmHg 92%
    06:00 +12°C° 0 mm 3 mps 749 mmHg 90%
    07:00 +14°C° 0 mm 3 mps 749 mmHg 88%
    08:00 +15°C° 0 mm 4 mps 749 mmHg 80%
    09:00 +17°C° 0 mm 5 mps 749 mmHg 71%
    10:00 +19°C° 0 mm 5 mps 749 mmHg 62%
    11:00 +19°C° 0 mm 5 mps 749 mmHg 59%
    12:00 +20°C° 0 mm 6 mps 749 mmHg 56%
    13:00 +20°C° 0 mm 6 mps 749 mmHg 53%
    14:00 +20°C° 0 mm 6 mps 749 mmHg 53%
    15:00 +19°C° 0 mm 6 mps 749 mmHg 53%
    16:00 +19°C° 0 mm 6 mps 749 mmHg 54%
    17:00 +16°C° 0 mm 5 mps 749 mmHg 60%
    18:00 +15°C° 0 mm 4 mps 749 mmHg 66%
    19:00 +14°C° 0 mm 3 mps 749 mmHg 71%
    20:00 +13°C° 0 mm 3 mps 749 mmHg 74%
    21:00 +13°C° 0 mm 2 mps 749 mmHg 77%
    22:00 +12°C° 0 mm 2 mps 749 mmHg 80%
    23:00 +12°C° 0 mm 2 mps 749 mmHg 81%

    Tomorrow, 2 June, Tuesday

    Time Temperature Precipitation Wind Pressure Humidity
    00:00 +12°C° 0 mm 2 mps 749 mmHg 83%
    01:00 +10°C° 0 mm 2 mps 748 mmHg 84%
    02:00 +10°C° 0 mm 3 mps 748 mmHg 81%
    03:00 +10°C° 0 mm 3 mps 748 mmHg 78%
    04:00 +10°C° 0 mm 3 mps 747 mmHg 75%
    05:00 +11°C° 0 mm 4 mps 747 mmHg 77%
    06:00 +11°C° 0 mm 4 mps 747 mmHg 78%
    07:00 +11°C° 0 mm 4 mps 747 mmHg 79%
    08:00 +13°C° 0.1 mm 4 mps 747 mmHg 73%
    09:00 +14°C° 0.1 mm 5 mps 747 mmHg 68%
    10:00 +16°C° 0.1 mm 5 mps 747 mmHg 62%
    11:00 +16°C° 0.1 mm 5 mps 747 mmHg 60%
    12:00 +16°C° 0.1 mm 5 mps 746 mmHg 59%
    13:00 +16°C° 0.1 mm 5 mps 746 mmHg 57%
    14:00 +16°C° 0.1 mm 5 mps 746 mmHg 57%
    15:00 +16°C° 0.1 mm 5 mps 745 mmHg 58%
    16:00 +17°C° 0.1 mm 4 mps 745 mmHg 59%
    17:00 +15°C° 0 mm 4 mps 744 mmHg 64%
    18:00 +16°C° 0 mm 3 mps 744 mmHg 70%
    19:00 +15°C° 0 mm 2 mps 744 mmHg 76%
    20:00 +14°C° 0 mm 2 mps 744 mmHg 80%
    21:00 +13°C° 0 mm 2 mps 744 mmHg 85%
    22:00 +12°C° 0 mm 2 mps 744 mmHg 90%
    23:00 +12°C° 0.1 mm 2 mps 743 mmHg 90%

    Day after tomorrow, 3 June, Wednesday

    Time Temperature Precipitation Wind Pressure Humidity
    00:00 +10°C° 0.1 mm 2 mps 743 mmHg 90%
    01:00 +10°C° 0.1 mm 2 mps 743 mmHg 90%
    02:00 +9°C° 0 mm 2 mps 742 mmHg 91%
    03:00 +9°C° 0 mm 2 mps 742 mmHg 91%
    04:00 +8°C° 0 mm 2 mps 741 mmHg 92%
    05:00 +9°C° 0 mm 2 mps 741 mmHg 86%
    06:00 +12°C° 0 mm 2 mps 741 mmHg 81%
    07:00 +13°C° 0 mm 2 mps 741 mmHg 75%
    08:00 +14°C° 0 mm 2 mps 741 mmHg 68%
    09:00 +15°C° 0 mm 2 mps 741 mmHg 60%
    10:00 +17°C° 0 mm 3 mps 741 mmHg 53%
    11:00 +17°C° 0 mm 3 mps 740 mmHg 51%
    12:00 +18°C° 0 mm 3 mps 740 mmHg 49%
    13:00 +19°C° 0 mm 3 mps 740 mmHg 47%
    14:00 +19°C° 0 mm 3 mps 740 mmHg 48%
    15:00 +19°C° 0 mm 3 mps 739 mmHg 49%
    16:00 +18°C° 0 mm 3 mps 739 mmHg 50%
    17:00 +17°C° 0 mm 2 mps 739 mmHg 56%
    18:00 +16°C° 0 mm 2 mps 739 mmHg 61%
    19:00 +15°C° 0 mm 1 mps 739 mmHg 67%
    20:00 +13°C° 0 mm 1 mps 739 mmHg 70%
    21:00 +12°C° 0 mm 1 mps 739 mmHg 73%
    22:00 +11°C° 0 mm 1 mps 739 mmHg 76%
    23:00 +10°C° 0 mm 1 mps 739 mmHg 78%

    4 June, Thursday

    Time Temperature Precipitation Wind Pressure Humidity
    00:00 +9°C° 0 mm 1 mps 739 mmHg 80%
    01:00 +9°C° 0 mm 1 mps 739 mmHg 82%
    02:00 +9°C° 0 mm 1 mps 738 mmHg 83%
    03:00 +8°C° 0 mm 1 mps 738 mmHg 84%
    04:00 +8°C° 0 mm 1 mps 738 mmHg 85%
    05:00 +10°C° 0 mm 1 mps 738 mmHg 79%
    06:00 +12°C° 0 mm 1 mps 737 mmHg 73%
    07:00 +14°C° 0 mm 2 mps 737 mmHg 66%
    08:00 +16°C° 0 mm 2 mps 737 mmHg 61%
    09:00 +17°C° 0 mm 2 mps 737 mmHg 55%
    10:00 +19°C° 0 mm 3 mps 737 mmHg 49%
    11:00 +20°C° 0 mm 3 mps 736 mmHg 48%
    12:00 +20°C° 0 mm 3 mps 736 mmHg 46%
    13:00 +21°C° 0 mm 3 mps 735 mmHg 44%
    14:00 +21°C° 0 mm 3 mps 735 mmHg 47%
    15:00 +21°C° 0 mm 3 mps 735 mmHg 50%
    16:00 +23°C° 0 mm 2 mps 734 mmHg 53%
    17:00 +20°C° 0 mm 2 mps 734 mmHg 59%
    18:00 +19°C° 0 mm 2 mps 733 mmHg 64%
    19:00 +18°C° 0 mm 3 mps 733 mmHg 70%
    20:00 +17°C° 0 mm 3 mps 733 mmHg 69%
    21:00 +17°C° 0 mm 3 mps 732 mmHg 68%
    22:00 +15°C° 0 mm 4 mps 732 mmHg 67%
    23:00 +15°C° 0 mm 4 mps 732 mmHg 66%

    5 June, Friday

    Time Temperature Precipitation Wind Pressure Humidity
    00:00 +15°C° 0 mm 4 mps 731 mmHg 65%
    01:00 +15°C° 0 mm 4 mps 731 mmHg 65%
    02:00 +15°C° 0 mm 4 mps 731 mmHg 68%
    03:00 +14°C° 0 mm 4 mps 730 mmHg 72%
    04:00 +14°C° 0 mm 3 mps 730 mmHg 76%
    05:00 +15°C° 0 mm 4 mps 730 mmHg 77%
    06:00 +17°C° 0 mm 4 mps 730 mmHg 78%
    07:00 +18°C° 0 mm 4 mps 731 mmHg 80%
    08:00 +17°C° 0.2 mm 5 mps 731 mmHg 81%
    09:00 +17°C° 0.2 mm 5 mps 731 mmHg 81%
    10:00 +17°C° 0.2 mm 6 mps 732 mmHg 82%
    11:00 +16°C° 0.2 mm 5 mps 732 mmHg 83%
    12:00 +17°C° 0.2 mm 4 mps 733 mmHg 84%
    13:00 +15°C° 0.2 mm 4 mps 733 mmHg 85%
    14:00 +14°C° 0.4 mm 4 mps 734 mmHg 87%
    15:00 +13°C° 0.4 mm 4 mps 734 mmHg 88%
    16:00 +12°C° 0.4 mm 5 mps 734 mmHg 90%
    17:00 +12°C° 0.2 mm 5 mps 735 mmHg 90%
    18:00 +10°C° 0.2 mm 5 mps 735 mmHg 90%
    19:00 +10°C° 0.2 mm 5 mps 736 mmHg 90%
    20:00 +11°C° 0.7 mm 4 mps 736 mmHg 91%
    21:00 +11°C° 0.7 mm 4 mps 737 mmHg 92%
    22:00 +10°C° 0.7 mm 3 mps 738 mmHg 93%
    23:00 +10°C° 0.1 mm 3 mps 738 mmHg 92%

    6 June, Saturday

    Time Temperature Precipitation Wind Pressure Humidity
    00:00 +10°C° 0.1 mm 2 mps 738 mmHg 92%
    01:00 +10°C° 0.1 mm 2 mps 738 mmHg 91%
    02:00 +10°C° 0 mm 2 mps 739 mmHg 90%
    03:00 +9°C° 0 mm 2 mps 739 mmHg 89%
    04:00 +9°C° 0 mm 2 mps 739 mmHg 88%
    05:00 +10°C° 0 mm 2 mps 740 mmHg 84%
    06:00 +12°C° 0 mm 3 mps 740 mmHg 80%
    07:00 +13°C° 0 mm 3 mps 740 mmHg 75%
    08:00 +16°C° 0 mm 3 mps 740 mmHg 69%
    09:00 +17°C° 0 mm 4 mps 740 mmHg 63%
    10:00 +19°C° 0 mm 4 mps 740 mmHg 57%
    11:00 +20°C° 0.1 mm 4 mps 740 mmHg 57%
    12:00 +20°C° 0.1 mm 4 mps 740 mmHg 57%
    13:00 +21°C° 0.1 mm 5 mps 740 mmHg 57%
    14:00 +21°C° 0.1 mm 4 mps 740 mmHg 57%
    15:00 +21°C° 0.1 mm 4 mps 740 mmHg 57%
    16:00 +21°C° 0.1 mm 4 mps 740 mmHg 56%
    17:00 +20°C° 0.1 mm 3 mps 740 mmHg 64%
    18:00 +18°C° 0.1 mm 3 mps 740 mmHg 72%
    19:00 +17°C° 0.1 mm 2 mps 740 mmHg 79%
    20:00 +16°C° 0 mm 2 mps 741 mmHg 81%
    21:00 +15°C° 0 mm 1 mps 741 mmHg 83%
    22:00 +14°C° 0 mm 1 mps 742 mmHg 85%
    23:00 +14°C° 0 mm 1 mps 742 mmHg 87%
    Show more